Location: Newark
(25.4617°S, 30.9297°E)
Time: 21:31:15
(UTC+00:00)

Envisat - Visible Passes

Search period start: 18 October 2019 00:00
Search period end: 28 October 2019 00:00
Orbit: 764 x 766 km, 98.1° (Epoch: 18 October)

Date Brightness Start Highest point End Pass type
(mag) Time Alt. Az. Time Alt. Az. Time Alt. Az.
18 Oct 6.7 02:54:11 10° ESE 02:54:43 10° ESE 02:55:15 10° ESE visible
18 Oct 3.0 16:45:27 10° SSE 16:50:36 89° WSW 16:55:42 10° NNW visible
19 Oct 5.8 17:49:03 10° SSW 17:52:30 18° WSW 17:55:56 10° WNW visible
20 Oct 4.2 17:11:08 10° S 17:16:01 45° WSW 17:20:51 10° NNW visible
21 Oct 3.0 16:34:14 10° SSE 16:39:21 69° ENE 16:44:24 10° N visible
22 Oct 5.4 17:37:17 10° SSW 17:41:20 24° WSW 17:45:21 10° NW visible
23 Oct 3.6 16:59:44 10° S 17:04:48 61° WSW 17:09:48 10° NNW visible
24 Oct 3.2 16:23:05 10° SSE 16:28:05 52° E 16:33:01 10° N visible
24 Oct 6.2 18:04:29 10° SW 18:06:34 12° WSW 18:08:39 10° W visible
25 Oct 4.9 17:25:41 10° SSW 17:30:09 31° WSW 17:34:36 10° NW visible
26 Oct 3.2 16:48:26 10° S 16:53:34 80° WSW 16:58:38 10° NNW visible
27 Oct 6.0 17:52:16 10° SSW 17:55:26 17° WSW 17:58:34 10° WNW visible
